Content
SEND FEEDBACK

Daily
Averages
Monthly
Summary
Mexico

SAN MARTINIANO, QUINTANA ROO


Home > North America > Mexico > Quintana Roo
Elevation: 49 feet     Latitude: 20 47N     Longitude: 087 16W

WEATHER
 
SELECT A DAY
Number of Records: 197,043;   Date Range: 2/21/06 - 9/22/14
 
SHARE

PRINT THIS DATA

[ ← Previous Day ]
WEATHER ALMANAC - FEBRUARY 17, 2013
[ Next Day → ]
[ °C ]   °F
Weather ElementAverageHighLow
Temperature46.8 °F57.2 °F (3:15 pm)37.4 °F (6:35 am)
Dewpoint16.1 °F30.2 °F (10:55 pm)5 °F (3:55 pm)
Humidity33.1 %75 % (11:55 pm)12 % (3:55 pm)
Barometer30.30 in30.38 in (11:15 pm)30.19 in (12:35 am)
Wind Speed6.6 mph12.7 mph (3:35 am)
Wind Gust23 mph (12:35 am)
Weather ElementAverage
Visibility10 mi
Wind DirectionSSW (192.2 °)

Weather ElementTotal
Precipitation---
Heating Degree Days17.7 (Base 65)
Averaged from 68 records on February 17, 2013
WEATHER CONDITIONS BREAKOUT
WIND DIRECTION BREAKOUT
WEATHER BY HOUR - FEBRUARY 17, 2013
[ °C ]   °F
Local TimeTemperatureDewpointHumidityBarometerVisibilityWind DirectionWind SpeedGust SpeedPrecipitationEventsConditions
12:35 AM50.0 °F21.2 °F32 %30.19 in10.0 miNorth (350°)10.4 mph23.0 mphClear
12:55 AM48.2 °F19.4 °F32 %30.20 in10.0 miNorth (350°)6.9 mphClear
1:15 AM48.2 °F19.4 °F32 %30.20 in10.0 miNorth (350°)9.2 mphClear
1:35 AM46.4 °F17.6 °F32 %30.21 in10.0 miNorth (350°)8.1 mph20.7 mphClear
1:55 AM46.4 °F17.6 °F32 %30.21 in10.0 miNorth (360°)9.2 mphClear
2:15 AM46.4 °F15.8 °F29 %30.21 in10.0 miNorth (360°)8.1 mphClear
2:35 AM44.6 °F15.8 °F31 %30.21 in10.0 miNorth (360°)6.9 mphClear
2:55 AM44.6 °F15.8 °F31 %30.22 in10.0 miNorth (350°)8.1 mph18.4 mphClear
3:15 AM42.8 °F15.8 °F34 %30.21 in10.0 miNorth (350°)11.5 mph18.4 mphClear
3:35 AM42.8 °F15.8 °F34 %30.22 in10.0 miNorth (350°)12.7 mph21.9 mphClear
3:55 AM42.8 °F15.8 °F34 %30.23 in10.0 miNNW (340°)12.7 mph16.1 mphClear
4:15 AM42.8 °F15.8 °F34 %30.22 in10.0 miNorth (350°)12.7 mphClear
4:35 AM41.0 °F17.6 °F39 %30.23 in10.0 miNNW (340°)11.5 mphClear
4:55 AM41.0 °F17.6 °F39 %30.24 in10.0 miNorth (360°)6.9 mphClear
5:15 AM39.2 °F19.4 °F45 %30.24 in10.0 miNorth (10°)4.6 mphClear
5:35 AM39.2 °F19.4 °F45 %30.26 in10.0 miNNE (30°)5.8 mphClear
5:55 AM39.2 °F19.4 °F45 %30.27 in10.0 miNE (50°)5.8 mphClear
6:15 AM39.2 °F19.4 °F45 %30.27 in10.0 miNE (50°)5.8 mphClear
6:35 AM37.4 °F21.2 °F52 %30.28 in10.0 miNE (40°)4.6 mphClear
7:15 AM37.4 °F21.2 °F52 %30.29 in10.0 miENE (70°)3.5 mphClear
7:35 AM37.4 °F21.2 °F52 %30.30 in10.0 miNorth (10°)4.6 mphClear
7:55 AM39.2 °F21.2 °F49 %30.31 in10.0 miNNE (20°)6.9 mphClear
8:15 AM41.0 °F21.2 °F45 %30.32 in10.0 miNorth (10°)5.8 mphClear
8:35 AM42.8 °F19.4 °F39 %30.33 in10.0 miNorth (10°)8.1 mphClear
8:55 AM42.8 °F15.8 °F34 %30.33 in10.0 miNNE (20°)12.7 mph20.7 mphClear
9:15 AM44.6 °F15.8 °F31 %30.34 in10.0 miNNE (30°)10.4 mph19.6 mphClear
9:35 AM44.6 °F14.0 °F29 %30.35 in10.0 miNNE (20°)10.4 mph17.3 mphClear
9:55 AM46.4 °F14.0 °F27 %30.35 in10.0 miNorth (360°)8.1 mph18.4 mphClear
10:15 AM46.4 °F14.0 °F27 %30.35 in10.0 miNNE (20°)11.5 mph16.1 mphClear
10:35 AM48.2 °F14.0 °F25 %30.35 in10.0 miNorth (10°)4.6 mph16.1 mphClear
10:55 AM48.2 °F12.2 °F24 %30.35 in10.0 miNorth (360°)8.1 mph16.1 mphClear
11:15 AM50.0 °F12.2 °F22 %30.36 in10.0 miNorth (350°)12.7 mph19.6 mphClear
11:35 AM51.8 °F12.2 °F21 %30.36 in10.0 miNNW (340°)11.5 mph18.4 mphClear
11:55 AM51.8 °F12.2 °F21 %30.35 in10.0 miNorth (10°)10.4 mph17.3 mphClear
12:15 PM51.8 °F10.4 °F19 %30.35 in10.0 miNW (320°)9.2 mph17.3 mphClear
12:35 PM53.6 °F12.2 °F19 %30.34 in10.0 miNorth (360°)8.1 mph17.3 mphClear
12:55 PM53.6 °F10.4 °F18 %30.33 in10.0 miNW (310°)10.4 mph16.1 mphClear
1:15 PM53.6 °F10.4 °F18 %30.33 in10.0 miNNW (340°)8.1 mphClear
1:55 PM55.4 °F10.4 °F17 %30.31 in10.0 miNNW (340°)8.1 mphClear
2:15 PM55.4 °F8.6 °F15 %30.30 in10.0 miWNW (300°)6.9 mph17.3 mphClear
2:35 PM55.4 °F6.8 °F14 %30.30 in10.0 miNorth (350°)8.1 mphClear
2:55 PM55.4 °F6.8 °F14 %30.30 in10.0 miNW (310°)11.5 mphClear
3:15 PM57.2 °F6.8 °F13 %30.29 in10.0 miNW (310°)4.6 mphClear
3:35 PM57.2 °F6.8 °F13 %30.29 in10.0 miNW (310°)8.1 mphClear
3:55 PM57.2 °F5.0 °F12 %30.29 in10.0 miNNW (340°)3.5 mphClear
4:15 PM55.4 °F5.0 °F13 %30.29 in10.0 miNorth (10°)6.9 mphClear
4:35 PM55.4 °F5.0 °F13 %30.29 in10.0 miENE (70°)6.9 mphClear
4:55 PM55.4 °F5.0 °F13 %30.29 in10.0 miNorth (350°)5.8 mphClear
5:15 PM55.4 °F5.0 °F13 %30.29 in10.0 miNorth (350°)4.6 mphClear
5:35 PM55.4 °F6.8 °F14 %30.29 in10.0 miNorth (360°)4.6 mphClear
5:55 PM53.6 °F5.0 °F14 %30.30 in10.0 miNNE (30°)5.8 mphClear
6:15 PM51.8 °F8.6 °F18 %30.30 in10.0 miNNE (30°)3.5 mphClear
6:35 PM51.8 °F8.6 °F18 %30.31 in10.0 miNNE (20°)3.5 mphClear
6:55 PM48.2 °F12.2 °F24 %30.31 in10.0 miNNE (20°)3.5 mphClear
7:15 PM46.4 °F15.8 °F29 %30.31 in10.0 miCalmClear
7:35 PM46.4 °F19.4 °F34 %30.32 in10.0 miNNW (340°)3.5 mphClear
7:55 PM46.4 °F21.2 °F37 %30.33 in10.0 miCalmClear
8:15 PM44.6 °F23.0 °F43 %30.34 in10.0 miNorth (10°)3.5 mphClear
8:35 PM46.4 °F24.8 °F43 %30.34 in10.0 miNorth (360°)4.6 mphClear
8:55 PM44.6 °F24.8 °F46 %30.35 in10.0 miCalmClear
9:15 PM44.6 °F26.6 °F49 %30.35 in10.0 miNorth (350°)3.5 mphClear
9:35 PM42.8 °F26.6 °F53 %30.36 in10.0 miNorth (350°)3.5 mphClear
10:15 PM39.2 °F28.4 °F65 %30.37 in10.0 miCalmClear
10:35 PM41.0 °F28.4 °F61 %30.37 in10.0 miNorth (10°)3.5 mphClear
10:55 PM39.2 °F30.2 °F70 %30.37 in10.0 miCalmClear
11:15 PM39.2 °F30.2 °F70 %30.38 in10.0 miCalmClear
11:35 PM39.2 °F30.2 °F70 %30.38 in10.0 miCalmClear
11:55 PM37.4 °F30.2 °F75 %30.38 in10.0 miEast (80°)6.9 mphClear
Hourly data recorded from KPCM, located miles away from San Martiniano, Quintana Roo







STORIES FROM OUR PARTNERS